GW2412 Weather Reports


Display with metric or nautical units.
time (UTC)temp
F
wind
direction
speed
MPH
gust
MPH
rain 1hr
in
rain 24hr
in
rain mn
in
humidity
%
barometer
mb
20260510134015 48 45 0.0 0.0 0.00 0.00 0.00 1 1018.0
20260510133517 47 45 0.0 0.0 0.00 0.00 0.00 1 1018.0
20260510133110 46 45 0.0 0.0 0.00 0.00 0.00 1 1018.0
20260510132518 45 45 0.0 0.0 0.00 0.00 0.00 1 1018.0
20260510132019 44 45 0.0 2.0 0.00 0.00 0.00 1 1018.0
20260510131610 43 45 0.0 2.0 0.00 0.00 0.00 1 1017.8
20260510131019 43 45 0.0 1.0 0.00 0.00 0.00 1 1017.9
20260510130519 42 45 0.0 2.0 0.00 0.00 0.00 1 1017.9
20260510130118 41 45 0.0 2.0 0.00 0.00 0.00 1 1018.1
20260510125515 41 45 0.0 2.0 0.00 0.00 0.00 1 1018.0
20260510125028 41 45 1.0 5.0 0.00 0.00 0.00 1 1017.9
20260510124557 41 45 3.0 5.0 0.00 0.00 0.00 1 1017.8
20260510124018 39 45 4.0 5.0 0.00 0.00 0.00 1 1017.9
20260510123518 37 45 2.0 4.0 0.00 0.00 0.00 1 1018.0
20260510123058 37 45 3.0 4.0 0.00 0.00 0.00 1 1018.1
20260510122518 37 45 2.0 3.0 0.00 0.00 0.00 1 1018.2
20260510122021 37 45 1.0 4.0 0.00 0.00 0.00 1 1018.3
20260510121557 37 45 2.0 5.0 0.00 0.00 0.00 1 1018.4
20260510121024 36 45 3.0 4.0 0.00 0.00 0.00 1 1018.4
20260510120522 36 45 1.0 4.0 0.00 0.00 0.00 1 1018.5
20260510120058 36 45 2.0 5.0 0.00 0.00 0.00 1 1018.5
20260510115519 36 45 2.0 5.0 0.00 0.00 0.00 1 1018.4
20260510115018 37 45 3.0 4.0 0.00 0.00 0.00 1 1018.4
20260510114550 37 45 3.0 4.0 0.00 0.00 0.00 1 1018.3
20260510114016 38 45 2.0 4.0 0.00 0.00 0.00 1 1018.3
20260510113514 38 45 2.0 4.0 0.00 0.00 0.00 1 1018.4
20260510113044 38 45 2.0 4.0 0.00 0.00 0.00 1 1018.4
20260510112517 37 45 3.0 4.0 0.00 0.00 0.00 1 1018.4
20260510112019 37 45 3.0 4.0 0.00 0.00 0.00 1 1018.4
20260510111540 38 45 2.0 4.0 0.00 0.00 0.00 1 1018.3
20260510111015 38 45 2.0 4.0 0.00 0.00 0.00 1 1018.4
20260510110651 38 45 3.0 4.0 0.00 0.00 0.00 1 1018.5
20260510110040 39 45 1.0 5.0 0.00 0.00 0.00 1 1018.5
20260510105519 39 45 3.0 5.0 0.00 0.00 0.00 1 1018.4
20260510105019 39 45 4.0 6.0 0.00 0.00 0.00 1 1018.4
20260510104610 40 45 5.0 6.0 0.00 0.00 0.00 1 1018.5
20260510104017 41 45 4.0 5.0 0.00 0.00 0.00 1 1018.7
20260510103517 42 45 3.0 4.0 0.00 0.00 0.00 1 1018.7
20260510103115 43 45 2.0 4.0 0.00 0.00 0.00 1 1018.6
20260510102517 45 45 2.0 4.0 0.00 0.00 0.00 1 1018.6
20260510102018 45 45 2.0 4.0 0.00 0.00 0.00 1 1018.7
20260510101603 44 45 2.0 4.0 0.00 0.00 0.00 1 1018.7
20260510101015 44 45 1.0 4.0 0.00 0.00 0.00 1 1018.8
20260510100517 44 45 2.0 4.0 0.00 0.00 0.00 1 1018.7
20260510100111 44 45 1.0 5.0 0.00 0.00 0.00 1 1018.6
20260510095517 44 45 4.0 6.0 0.00 0.00 0.00 1 1018.6
20260510095019 43 45 4.0 6.0 0.00 0.00 0.00 1 1018.6
20260510094611 43 45 4.0 6.0 0.00 0.00 0.00 1 1018.6
20260510094019 43 53 3.0 6.0 0.00 0.00 0.00 1 1018.6
20260510093515 43 49 3.0 6.0 0.00 0.00 0.00 1 1018.6
20260510093116 44 59 3.0 6.0 0.00 0.00 0.00 1 1018.7
20260510092518 43 59 3.0 6.0 0.00 0.00 0.00 1 1018.6
20260510092016 44 45 3.0 5.0 0.00 0.00 0.00 1 1018.7
20260510091609 44 45 3.0 5.0 0.00 0.00 0.00 1 1018.7
20260510091015 44 45 3.0 5.0 0.00 0.00 0.00 1 1018.7
20260510090519 44 45 3.0 5.0 0.00 0.00 0.00 1 1018.6
20260510090117 45 45 3.0 6.0 0.00 0.00 0.00 1 1018.7
20260510085519 45 45 4.0 6.0 0.00 0.00 0.00 1 1018.7
20260510085030 45 46 5.0 7.0 0.00 0.00 0.00 1 1018.9
20260510084552 45 51 5.0 7.0 0.00 0.00 0.00 1 1019.0
20260510084016 45 51 5.0 7.0 0.00 0.00 0.00 1 1019.0
20260510083521 46 39 5.0 7.0 0.00 0.00 0.00 1 1019.0
20260510083108 46 37 5.0 7.0 0.00 0.00 0.00 1 1019.1
20260510082517 46 37 5.0 9.0 0.00 0.00 0.00 1 1019.2
20260510082033 46 43 6.0 9.0 0.00 0.00 0.00 1 1019.1
20260510081552 46 45 6.0 9.0 0.00 0.00 0.00 1 1019.1
20260510081017 45 42 6.0 9.0 0.00 0.00 0.00 1 1019.1
20260510080519 45 42 5.0 9.0 0.00 0.00 0.00 1 1019.1
20260510080115 45 42 6.0 9.0 0.00 0.00 0.00 1 1019.1
20260510075531 45 42 5.0 9.0 0.00 0.00 0.00 1 1019.1
20260510075018 45 42 6.0 9.0 0.00 0.00 0.00 1 1019.1
20260510074602 44 42 6.0 9.0 0.00 0.00 0.00 1 1019.1
20260510074028 44 42 4.0 7.0 0.00 0.00 0.00 1 1019.2
20260510073520 44 42 6.0 7.0 0.00 0.00 0.00 1 1019.3
20260510073058 43 42 5.0 7.0 0.00 0.00 0.00 1 1019.4
20260510072528 43 42 5.0 7.0 0.00 0.00 0.00 1 1019.3
20260510072019 43 42 5.0 6.0 0.00 0.00 0.00 1 1019.4
20260510071601 44 42 3.0 5.0 0.00 0.00 0.00 1 1019.3
20260510071016 44 42 3.0 5.0 0.00 0.00 0.00 1 1019.4
20260510070517 45 42 4.0 5.0 0.00 0.00 0.00 1 1019.4
20260510070337 46 42 1.0 4.0 0.00 0.00 0.00 1 1019.4
20260510065518 46 42 1.0 3.0 0.00 0.00 0.00 1 1019.4
20260510065016 45 42 2.0 3.0 0.00 0.00 0.00 1 1019.3
20260510064613 44 42 0.0 3.0 0.00 0.00 0.00 1 1019.3
20260510064015 44 42 1.0 5.0 0.00 0.00 0.00 1 1019.3
20260510063517 44 42 3.0 5.0 0.00 0.00 0.00 1 1019.3
20260510063100 44 42 1.0 5.0 0.00 0.00 0.00 1 1019.4
20260510062515 44 42 4.0 5.0 0.00 0.00 0.00 1 1019.3
20260510062015 44 42 0.0 3.0 0.00 0.00 0.00 1 1019.5
20260510061549 45 42 1.0 3.0 0.00 0.00 0.00 1 1019.5
20260510061016 46 42 0.0 4.0 0.00 0.00 0.00 1 1019.5
20260510060516 47 42 1.0 4.0 0.00 0.00 0.00 1 1019.5
20260510060100 47 42 0.0 2.0 0.00 0.00 0.00 1 1019.5
20260510055515 46 42 1.0 4.0 0.00 0.00 0.00 1 1019.5
20260510055016 46 42 2.0 4.0 0.00 0.00 0.00 1 1019.5
20260510054553 46 42 1.0 4.0 0.00 0.00 0.00 1 1019.4
20260510054016 46 42 1.0 4.0 0.00 0.00 0.00 1 1019.4
20260510053512 45 42 0.0 3.0 0.00 0.00 0.00 1 1019.4
20260510053042 45 42 0.0 1.0 0.00 0.00 0.00 1 1019.6
20260510052516 45 42 0.0 2.0 0.00 0.00 0.00 1 1019.6
20260510052019 46 42 0.0 3.0 0.00 0.00 0.00 1 1019.6
20260510051609 46 42 0.0 3.0 0.00 0.00 0.00 1 1019.5
20260510051016 47 42 0.0 4.0 0.00 0.00 0.00 1 1019.5
20260510050518 47 42 2.0 4.0 0.00 0.00 0.00 1 1019.4
20260510050127 47 42 2.0 4.0 0.00 0.00 0.00 1 1019.5
20260510045517 47 42 2.0 4.0 0.00 0.00 0.00 1 1019.4
20260510045021 47 42 2.0 4.0 0.00 0.00 0.00 1 1019.5
20260510044604 48 42 3.0 6.0 0.00 0.00 0.00 1 1019.5
20260510044015 48 42 3.0 6.0 0.00 0.00 0.00 1 1019.5
20260510043512 48 42 4.0 7.0 0.00 0.00 0.00 1 1019.6
20260510043059 48 42 4.0 7.0 0.00 0.00 0.00 1 1019.5
20260510042513 48 46 5.0 7.0 0.00 0.00 0.00 1 1019.4
20260510042015 48 46 5.0 7.0 0.00 0.00 0.00 1 1019.3
20260510041613 49 46 5.0 9.0 0.00 0.00 0.00 1 1019.2
20260510041013 49 70 5.0 6.0 0.00 0.00 0.00 1 1019.3
20260510040515 49 59 5.0 6.0 0.00 0.00 0.00 1 1019.2
20260510040054 48 40 5.0 8.0 0.00 0.00 0.00 1 1019.2
20260510035510 48 31 6.0 8.0 0.00 0.00 0.00 1 1019.1
20260510035019 49 49 5.0 7.0 0.00 0.00 0.00 1 1019.2
20260510034553 49 57 6.0 7.0 0.00 0.00 0.00 1 1019.1
20260510034015 49 31 5.0 8.0 0.00 0.00 0.00 1 1019.2
20260510033517 50 36 5.0 7.0 0.00 0.00 0.00 1 1018.9
20260510033055 50 51 5.0 9.0 0.00 0.00 0.00 1 1018.7
20260510032519 50 44 6.0 9.0 0.00 0.00 0.00 1 1018.9
20260510032020 50 36 5.0 8.0 0.00 0.00 0.00 1 1018.8
20260510031601 50 36 5.0 8.0 0.00 0.00 0.00 1 1018.7
20260510031017 50 44 5.0 7.0 0.00 0.00 0.00 1 1018.5
20260510030524 51 64 5.0 6.0 0.00 0.00 0.00 1 1018.4
20260510030057 52 64 5.0 8.0 0.00 0.00 0.00 1 1018.3
20260510025516 52 64 5.0 8.0 0.00 0.00 0.00 1 1018.3
20260510025017 53 64 5.0 8.0 0.00 0.00 0.00 1 1018.1
20260510024606 54 69 3.0 6.0 0.00 0.00 0.00 1 1018.1
20260510024020 55 70 4.0 6.0 0.00 0.00 0.00 1 1018.1
20260510023529 56 87 3.0 8.0 0.00 0.00 0.00 1 1018.1
20260510023049 57 92 6.0 8.0 0.00 0.00 0.00 1 1018.0
20260510022517 58 86 6.0 9.0 0.00 0.00 0.00 1 1017.8
20260510022016 58 90 4.0 7.0 0.00 0.00 0.00 1 1017.8
20260510021546 59 81 5.0 6.0 0.00 0.00 0.00 1 1018.0
20260510021015 59 135 3.0 5.0 0.00 0.00 0.00 1 1017.9
20260510020515 59 135 2.0 4.0 0.00 0.00 0.00 1 1017.8
20260510020049 60 135 3.0 5.0 0.00 0.00 0.00 1 1018.0
20260510015514 60 135 4.0 5.0 0.00 0.00 0.00 1 1017.8
20260510015013 60 141 3.0 4.0 0.00 0.00 0.00 1 1018.1
20260510014550 60 141 2.0 5.0 0.00 0.00 0.00 1 1017.8
20260510014014 60 141 3.0 7.0 0.00 0.00 0.00 1 1017.8
20260510013515 60 140 4.0 7.0 0.00 0.00 0.00 1 1018.0
20260510013102 61 162 5.0 7.0 0.00 0.00 0.00 1 1018.1
20260510012517 61 162 3.0 6.0 0.00 0.00 0.00 1 1018.0
20260510012017 61 162 4.0 6.0 0.00 0.00 0.00 1 1018.1
20260510011556 61 181 3.0 6.0 0.00 0.00 0.00 1 1018.1
20260510011018 61 181 3.0 6.0 0.00 0.00 0.00 1 1018.0
20260510010518 61 159 4.0 7.0 0.00 0.00 0.00 1 1018.0
20260510010101 62 159 4.0 7.0 0.00 0.00 0.00 1 1018.0
20260510005518 62 211 4.0 7.0 0.00 0.00 0.00 1 1018.0
20260510005015 62 181 4.0 7.0 0.00 0.00 0.00 1 1018.1
20260510004559 62 176 5.0 10.0 0.00 0.00 0.00 1 1018.1
20260510004020 62 191 8.0 11.0 0.00 0.00 0.00 1 1018.0
20260510003518 61 171 7.0 12.0 0.00 0.00 0.00 1 1018.0
20260510003048 62 188 7.0 11.0 0.00 0.00 0.00 1 1017.9
20260510002514 62 204 7.0 12.0 0.00 0.00 0.00 1 1017.9
20260510002016 62 201 3.0 12.0 0.00 0.00 0.00 1 1017.9
20260510001549 62 219 4.0 8.0 0.00 0.00 0.00 1 1018.0
20260510001020 62 213 4.0 8.0 0.00 0.00 0.00 1 1018.1
20260510000519 61 224 2.0 10.0 0.00 0.00 0.00 1 1018.0
20260509235518 61 240 5.0 13.0 0.00 0.00 0.00 1 1018.2
20260509235018 61 242 8.0 14.0 0.00 0.00 0.00 1 1018.1
20260509234604 61 241 10.0 14.0 0.00 0.00 0.00 1 1018.1
20260509234016 61 242 7.0 10.0 0.00 0.00 0.00 1 1018.2
20260509233512 61 263 8.0 11.0 0.00 0.00 0.00 1 1018.1
20260509233053 61 269 7.0 12.0 0.00 0.00 0.00 1 1018.1
20260509232515 61 245 7.0 11.0 0.00 0.00 0.00 1 1018.1
20260509232016 61 290 4.0 10.0 0.00 0.00 0.00 1 1018.0
20260509231550 61 204 5.0 9.0 0.00 0.00 0.00 1 1018.0
20260509231015 61 214 1.0 8.0 0.00 0.00 0.00 1 1017.9
20260509230516 61 211 6.0 8.0 0.00 0.00 0.00 1 1018.0
20260509230105 61 254 3.0 7.0 0.00 0.00 0.00 1 1018.0
20260509225519 61 181 0.0 4.0 0.00 0.00 0.00 1 1018.0
20260509225016 61 173 0.0 7.0 0.00 0.00 0.00 1 1018.1
20260509224551 61 173 0.0 7.0 0.00 0.00 0.00 1 1018.3
20260509224018 61 167 2.0 8.0 0.00 0.00 0.00 1 1018.3
20260509223521 61 242 1.0 13.0 0.00 0.00 0.00 1 1018.3
20260509223057 61 275 6.0 13.0 0.00 0.00 0.00 1 1018.4
20260509222527 61 227 2.0 9.0 0.00 0.00 0.00 1 1018.3
20260509222017 61 243 5.0 9.0 0.00 0.00 0.00 1 1018.3
20260509221606 61 240 2.0 11.0 0.00 0.00 0.00 1 1018.4
20260509221018 61 257 8.0 11.0 0.00 0.00 0.00 1 1018.4
20260509220527 61 195 0.0 7.0 0.00 0.00 0.00 1 1018.4
20260509220105 61 195 3.0 10.0 0.00 0.00 0.00 1 1018.4
20260509215519 61 194 6.0 10.0 0.00 0.00 0.00 1 1018.4
20260509215019 61 213 6.0 13.0 0.00 0.00 0.00 1 1018.4
20260509214545 62 196 9.0 13.0 0.00 0.00 0.00 1 1018.4
20260509214021 61 232 3.0 8.0 0.00 0.00 0.00 1 1018.5
20260509213517 61 190 2.0 9.0 0.00 0.00 0.00 1 1018.4
20260509213041 60 230 0.0 5.0 0.00 0.00 0.00 1 1018.5
20260509212517 60 267 2.0 6.0 0.00 0.00 0.00 1 1018.5
20260509212016 60 267 1.0 7.0 0.00 0.00 0.00 1 1018.6
20260509211537 59 267 2.0 9.0 0.00 0.00 0.00 1 1018.6
20260509211015 59 291 3.0 9.0 0.00 0.00 0.00 1 1018.6
20260509210517 59 252 0.0 5.0 0.00 0.00 0.00 1 1018.6
20260509210055 59 252 0.0 9.0 0.00 0.00 0.00 1 1018.6
20260509205517 59 282 2.0 9.0 0.00 0.00 0.00 1 1018.7
20260509205019 59 265 3.0 7.0 0.00 0.00 0.00 1 1018.7
20260509204544 59 336 4.0 8.0 0.00 0.00 0.00 1 1018.7
20260509204021 59 336 3.0 10.0 0.00 0.00 0.00 1 1018.5
20260509203521 59 260 5.0 11.0 0.00 0.00 0.00 1 1018.7
20260509203051 60 258 8.0 11.0 0.00 0.00 0.00 1 1018.4
20260509202521 59 266 2.0 10.0 0.00 0.00 0.00 1 1018.5
20260509202018 60 227 8.0 10.0 0.00 0.00 0.00 1 1018.6
20260509201547 60 265 4.0 8.0 0.00 0.00 0.00 1 1018.6
20260509201025 60 286 2.0 8.0 0.00 0.00 0.00 1 1018.6
20260509200519 60 257 4.0 10.0 0.00 0.00 0.00 1 1018.4
20260509200047 60 213 6.0 11.0 0.00 0.00 0.00 1 1018.4
20260509195520 60 219 8.0 13.0 0.00 0.00 0.00 1 1018.3
20260509195009 61 194 9.0 13.0 0.00 0.00 0.00 1 1018.2
20260509194538 61 162 3.0 15.0 0.00 0.00 0.00 1 1018.3
20260509194012 60 128 6.0 14.0 0.00 0.00 0.00 1 1018.5
20260509193517 60 185 9.0 14.0 0.00 0.00 0.00 1 1018.4
20260509193039 60 213 3.0 7.0 0.00 0.00 0.00 1 1018.6
20260509192512 60 220 2.0 12.0 0.00 0.00 0.00 1 1018.6
20260509192025 60 192 9.0 12.0 0.00 0.00 0.00 1 1018.6
20260509191610 59 266 1.0 7.0 0.00 0.00 0.00 1 1018.6
20260509191018 59 266 2.0 11.0 0.00 0.00 0.00 1 1018.6
20260509190518 59 218 8.0 12.0 0.00 0.00 0.00 1 1018.5
20260509185516 59 193 3.0 11.0 0.00 0.00 0.00 1 1018.5
20260509185016 59 219 7.0 13.0 0.00 0.00 0.00 1 1018.6
20260509184550 59 239 6.0 13.0 0.00 0.00 0.00 1 1018.6
20260509184014 59 249 7.0 11.0 0.00 0.00 0.00 1 1018.5
20260509183513 58 203 4.0 5.0 0.00 0.00 0.00 1 1018.5
20260509183048 58 221 0.0 8.0 0.00 0.00 0.00 1 1018.5
20260509182516 58 232 4.0 8.0 0.00 0.00 0.00 1 1018.7
20260509182016 58 219 2.0 10.0 0.00 0.00 0.00 1 1018.6
20260509181557 58 194 4.0 10.0 0.00 0.00 0.00 1 1018.6
20260509181021 58 209 0.0 8.0 0.00 0.00 0.00 1 1018.6
20260509180517 58 215 5.0 8.0 0.00 0.00 0.00 1 1018.6
20260509180327 58 248 3.0 7.0 0.00 0.00 0.00 1 1018.6
20260509175515 58 300 0.0 5.0 0.00 0.00 0.00 1 1018.4
20260509175018 58 235 0.0 4.0 0.00 0.00 0.00 1 1018.4
20260509174546 57 318 1.0 8.0 0.00 0.00 0.00 1 1018.4
20260509174016 58 347 2.0 5.0 0.00 0.00 0.00 1 1018.4
20260509173513 58 281 2.0 5.0 0.00 0.00 0.00 1 1018.2
20260509173055 57 267 1.0 4.0 0.00 0.00 0.00 1 1018.1
20260509172515 57 267 1.0 7.0 0.00 0.00 0.00 1 1018.0
20260509172016 57 290 2.0 7.0 0.00 0.00 0.00 1 1018.0
20260509171559 57 292 4.0 7.0 0.00 0.00 0.00 1 1018.0
20260509171015 57 323 2.0 8.0 0.00 0.00 0.00 1 1018.0
20260509170515 57 277 5.0 10.0 0.00 0.00 0.00 1 1017.8
20260509170051 57 338 7.0 10.0 0.00 0.00 0.00 1 1017.9
20260509165516 57 340 5.0 12.0 0.00 0.00 0.00 1 1018.0
20260509165016 57 280 3.0 12.0 0.00 0.00 0.00 1 1017.9
20260509164552 57 330 5.0 12.0 0.00 0.00 0.00 1 1017.8
20260509164018 57 91 4.0 9.0 0.00 0.00 0.00 1 1017.9
20260509163516 57 157 4.0 7.0 0.00 0.00 0.00 1 1018.0
20260509163053 57 130 1.0 7.0 0.00 0.00 0.00 1 1018.0
20260509162515 57 175 4.0 9.0 0.00 0.00 0.00 1 1018.0
20260509162017 57 161 5.0 9.0 0.00 0.00 0.00 1 1018.0
20260509161549 57 342 1.0 3.0 0.00 0.00 0.00 1 1017.7
20260509161015 57 342 0.0 6.0 0.00 0.00 0.00 1 1017.8
20260509160514 57 342 1.0 12.0 0.00 0.00 0.00 1 1018.0
20260509160050 57 355 5.0 13.0 0.00 0.00 0.00 1 1017.6
20260509155507 57 336 9.0 13.0 0.00 0.00 0.00 1 1017.4
20260509155019 57 321 0.0 8.0 0.00 0.00 0.00 1 1017.4
20260509154548 58 218 3.0 7.0 0.00 0.00 0.00 1 1017.5
20260509154025 58 222 4.0 8.0 0.00 0.00 0.00 1 1017.5
20260509153515 58 207 5.0 8.0 0.00 0.00 0.00 1 1017.5
20260509153043 58 222 0.0 6.0 0.00 0.00 0.00 1 1017.5
20260509152526 58 222 1.0 6.0 0.00 0.00 0.00 1 1017.5
20260509152018 57 315 1.0 5.0 0.00 0.00 0.00 1 1017.4
20260509151547 57 319 1.0 5.0 0.00 0.00 0.00 1 1017.4
20260509151016 57 257 3.0 5.0 0.00 0.00 0.00 1 1017.2
20260509150517 57 219 1.0 4.0 0.00 0.00 0.00 1 1017.2
20260509150052 58 219 0.0 4.0 0.00 0.00 0.00 1 1017.3
20260509145531 57 336 0.0 0.0 0.00 0.00 0.00 1 1017.1
20260509145020 57 336 0.0 1.0 0.00 0.00 0.00 1 1017.0
20260509144551 56 336 0.0 3.0 0.00 0.00 0.00 1 1017.0
20260509144017 56 336 0.0 3.0 0.00 0.00 0.00 1 1016.8
20260509143516 56 336 0.0 2.0 0.00 0.00 0.00 1 1017.0
20260509143051 56 336 0.0 0.0 0.00 0.00 0.00 1 1017.1
20260509142517 55 336 0.0 1.0 0.00 0.00 0.00 1 1016.8
20260509142022 55 336 0.0 3.0 0.00 0.00 0.00 1 1016.8
20260509141552 54 336 0.0 3.0 0.00 0.00 0.00 1 1016.7
20260509141017 54 336 1.0 4.0 0.00 0.00 0.00 1 1016.7
20260509140518 54 5 1.0 6.0 0.00 0.00 0.00 1 1016.7
20260509140041 53 5 4.0 8.0 0.00 0.00 0.00 1 1016.6
20260509135517 53 5 5.0 9.0 0.00 0.00 0.00 1 1016.7
20260509135020 53 351 5.0 9.0 0.00 0.00 0.00 1 1016.6
20260509134550 53 360 3.0 8.0 0.00 0.00 0.00 1 1016.7